{"data":{"norad_id":40483,"epoch":"2026-05-25T06:00:02.000160Z","epoch_age_seconds":43594,"freshness":"FRESH","line1":"1 40483U 15011B   26145.25002315 -.00000131  00000+0  00000+0 0  9997","line2":"2 40483  71.8171 349.1092 8341106 166.9291 118.6886  0.28348056  1376","mean_motion":0.28348056,"eccentricity":0.8341106,"inclination_deg":71.8171,"raan_deg":349.1092,"arg_perigee_deg":166.9291,"mean_anomaly_deg":118.6886,"bstar":0,"rev_number":137,"period_min":5079.7134025698,"perigee_km":9860.0780878557,"apogee_km":173155.22931344,"semimajor_km":97885.790700646,"source":"CELESTRAK","updated_at":"2026-05-25T13:38:24.644280Z"}}